Simultaneous Nadir Overpasses (SNOs) Predictions

Prediction of SNOs between GOES-16 and METOP-C Satellite Orbit:

Table of predicted SNOs for the next 14.0 days since TLE Epoch: 2/8/2021
Index Date Time (GOES-16) GOES-16 Lat,Lon METOP-C Lat,Lon Distance(km) Time Diff (sec)
1 02/09/2021 14:47:02 -0.00, -75.19 0.87, -78.97 431.54 80
2 02/10/2021 14:29:03 -0.00, -75.19 -0.29, -73.99 137.44 80
3 02/12/2021 02:48:03 0.00, -75.16 -0.77, -78.57 389.34 80
4 02/13/2021 02:24:44 -0.00, -75.16 0.33, -73.58 180.16 80
5 02/14/2021 14:43:36 0.00, -75.20 0.64, -78.15 335.44 80
6 02/15/2021 14:25:37 -0.00, -75.21 -0.46, -73.15 234.58 80
7 02/17/2021 02:44:37 0.00, -75.20 -0.58, -77.74 290.55 80
8 02/18/2021 02:21:18 0.00, -75.21 0.52, -72.74 279.73 80
9 02/19/2021 14:40:10 0.00, -75.25 0.47, -77.31 235.11 80
10 02/20/2021 14:22:11 0.00, -75.26 -0.63, -72.31 335.40 80
11 02/22/2021 02:41:11 -0.00, -75.26 -0.39, -76.91 188.89 80
